Location: Unspecified
(0.0000°N, 0.0000°E)
Time: 07:58:55
(UTC+00:00)

Vanguard 1 Rocket - All Passes

Search period start: 20 August 2017 00:00
Search period end: 30 August 2017 00:00
Orbit: 653 x 4224 km, 34.3° (Epoch: 19 August)

Date Brightness Start Highest point End Pass type
(mag) Time Alt. Az. Time Alt. Az. Time Alt. Az.
20 Aug - 00:25:32 10° NW 00:38:10 17° NNW 00:47:56 10° NNE visible
20 Aug - 03:09:44 10° NNW 03:14:08 12° N 03:17:46 10° NNE visible
20 Aug - 05:36:57 10° NNW 05:44:04 31° NNE 05:48:43 10° E visible
20 Aug - 08:04:55 10° W 08:09:19 27° SW 08:13:07 10° SSE daylight
20 Aug - 15:29:20 10° SSW 15:39:50 25° SE 15:55:48 10° E daylight
20 Aug - 17:52:59 10° SW 18:10:34 73° SE 18:37:00 10° ENE visible
20 Aug - 20:22:05 10° WSW 20:44:22 54° NW 21:08:36 10° NE visible
20 Aug - 23:02:41 10° WNW 23:21:20 24° NNW 23:36:21 10° NNE visible
21 Aug - 01:52:45 10° NNW 01:59:19 13° N 02:04:38 10° NNE visible
21 Aug - 04:24:32 10° NNW 04:31:53 21° NNE 04:36:50 10° ENE visible
21 Aug - 06:52:06 10° WNW 06:58:46 77° SW 07:03:18 10° SE daylight
21 Aug - 14:21:33 10° S 14:26:20 13° SE 14:32:13 10° ESE daylight
21 Aug - 16:42:01 10° SSW 16:56:26 51° SE 17:20:05 10° ENE daylight
21 Aug - 19:08:20 10° WSW 19:28:29 73° NW 19:54:54 10° NE visible
21 Aug - 21:42:51 10° W 22:04:23 33° NNW 22:24:09 10° NNE visible
22 Aug - 00:31:31 10° NW 00:43:10 16° N 00:52:11 10° NNE visible
22 Aug - 03:11:07 10° NNW 03:18:40 16° N 03:24:06 10° NE visible
22 Aug - 05:39:28 10° NW 05:47:47 49° NNE 05:52:46 10° ESE visible
22 Aug - 08:09:32 10° WSW 08:12:38 16° SW 08:15:26 10° S daylight
22 Aug - 15:31:59 10° SSW 15:43:03 32° SE 16:00:59 10° E daylight
22 Aug - 17:56:04 10° SW 18:13:20 85° SE 18:40:02 10° NE visible
22 Aug - 20:26:12 10° W 20:47:42 46° NNW 21:11:15 10° NE visible
22 Aug - 23:08:52 10° WNW 23:26:00 21° NNW 23:39:50 10° NNE visible
23 Aug - 01:55:32 10° NNW 02:04:12 15° N 02:10:42 10° NE visible
23 Aug - 04:26:35 10° NNW 04:35:55 30° NNE 04:41:32 10° E visible
23 Aug - 06:55:36 10° WNW 07:02:02 44° SW 07:06:27 10° SSE daylight
23 Aug - 14:23:20 10° S 14:30:03 17° SE 14:39:20 10° ESE daylight
23 Aug - 16:44:55 10° SW 16:59:13 61° SE 17:23:40 10° ENE daylight
23 Aug - 19:11:55 10° WSW 19:31:32 62° NW 19:57:32 10° NE visible
23 Aug - 21:48:13 10° WNW 22:08:31 29° NNW 22:27:09 10° NNE visible
24 Aug - 00:36:33 10° NW 00:48:17 16° N 00:57:11 10° NNE visible
24 Aug - 03:12:58 10° NNW 03:23:01 22° NNE 03:29:29 10° ENE visible
24 Aug - 05:42:18 10° NW 05:51:18 79° NE 05:56:28 10° ESE daylight
24 Aug - 15:34:43 10° SSW 15:46:03 39° SE 16:05:33 10° ENE daylight
24 Aug - 17:59:21 10° WSW 18:16:13 82° NW 18:42:49 10° NE visible
24 Aug - 20:30:42 10° W 20:51:21 39° NNW 21:13:57 10° NE visible
24 Aug - 23:15:00 10° NW 23:31:00 19° NNW 23:43:51 10° NNE visible
25 Aug - 01:57:56 10° NNW 02:08:55 19° N 02:16:29 10° NE visible
25 Aug - 04:28:55 10° NW 04:39:46 44° NNE 04:45:46 10° E visible
25 Aug - 06:59:34 10° W 07:05:13 27° SW 07:09:17 10° SSE daylight
25 Aug - 14:25:35 10° S 14:33:27 22° SE 14:45:24 10° E daylight
25 Aug - 16:47:58 10° SW 17:02:00 74° SE 17:26:53 10° ENE daylight
25 Aug - 19:15:49 10° WSW 19:34:50 52° NNW 20:00:06 10° NE visible
25 Aug - 21:53:58 10° WNW 22:13:05 25° NNW 22:30:28 10° NNE visible
26 Aug - 00:40:34 10° NW 00:53:20 18° N 01:02:42 10° NE visible
26 Aug - 03:15:01 10° NW 03:27:10 30° NNE 03:34:16 10° E visible
26 Aug - 05:45:28 10° WNW 05:54:37 68° SW 05:59:51 10° SE daylight
26 Aug - 15:37:33 10° SSW 15:48:54 49° SE 16:09:32 10° ENE daylight
26 Aug - 18:02:50 10° WSW 18:19:17 69° NW 18:45:26 10° NE visible
26 Aug - 20:35:38 10° W 20:55:22 33° NNW 21:16:48 10° NNE visible
26 Aug - 23:20:37 10° NW 23:36:12 19° N 23:48:31 10° NE visible
27 Aug - 02:00:11 10° NNW 02:13:25 24° NNE 02:21:49 10° ENE visible
27 Aug - 04:31:30 10° NW 04:43:24 64° NNE 04:49:36 10° ESE visible
27 Aug - 07:04:13 10° W 07:08:21 17° SW 07:11:38 10° S daylight
27 Aug - 14:28:04 10° SSW 14:36:35 28° SE 14:50:37 10° E daylight
27 Aug - 16:51:10 10° SW 17:04:53 88° SE 17:29:48 10° NE daylight
27 Aug - 19:20:03 10° W 19:38:27 43° NNW 20:02:40 10° NE visible
27 Aug - 21:59:54 10° WNW 22:18:01 22° NNW 22:34:16 10° NNE visible
28 Aug - 00:43:48 10° NNW 00:58:14 21° N 01:08:16 10° NE visible
28 Aug - 03:17:15 10° NW 03:31:08 41° NNE 03:38:36 10° E visible
28 Aug - 05:48:58 10° WNW 05:57:46 44° SW 06:02:58 10° SSE daylight
28 Aug - 13:20:43 10° SSE 13:24:31 13° SE 13:29:10 10° ESE daylight
28 Aug - 15:40:30 10° SW 15:51:43 61° SE 16:13:05 10° ENE daylight
28 Aug - 18:06:34 10° WSW 18:22:36 57° NNW 18:47:56 10° NE visible
28 Aug - 20:40:57 10° WNW 20:59:48 28° NNW 21:19:55 10° NNE visible
28 Aug - 23:25:25 10° NW 23:41:27 20° N 23:53:44 10° NE visible
29 Aug - 02:02:23 10° NW 02:17:42 31° NNE 02:26:41 10° E visible
29 Aug - 04:34:20 10° NW 04:46:48 89° SW 04:53:09 10° SE visible
29 Aug - 07:11:00 10° SW 07:11:33 10° SW 07:12:06 10° SW daylight
29 Aug - 14:30:44 10° SSW 14:39:32 36° SE 14:55:10 10° ENE daylight
29 Aug - 16:54:34 10° WSW 17:07:57 77° NW 17:32:29 10° NE daylight
29 Aug - 19:24:40 10° W 19:42:23 36° NNW 20:05:19 10° NE visible
29 Aug - 22:05:41 10° NW 22:23:14 21° N 22:38:40 10° NE visible
